Theta_e
288 288 290 292 293 293 293 293 295 296 295 294 293 295 296 299 301 302 303 304 304 304 304 305 306 306 306 305 305 305 306 306 306 307 307 307 307 308 308 308 308 308 308 309 310 310 311 311 314 314 314 314 313 313 313 313 314 314 315 315 315 315 315 315 315 315 315 315 315
288 289 290 293 294 294 293 294 294 294 294 293 293 294 295 298 300 301 302 303 303 304 304 305 305 305 305 305 305 305 305 306 306 306 306 307 307 307 307 307 307 308 308 308 309 310 310 310 313 314 314 313 313 312 312 313 313 313 314 314 314 314 314 315 315 315 315 315 315
287 288 289 289 289 290 291 292 291 290 289 290 292 293 294 296 299 301 302 302 303 303 304 305 305 304 304 304 304 304 304 305 305 306 306 306 306 306 306 306 307 307 308 308 308 309 309 310 312 314 314 313 312 311 311 312 313 313 313 313 314 314 314 314 314 314 314 314 314
286 286 287 287 288 288 289 291 290 289 289 290 290 292 294 295 297 300 301 300 301 302 303 304 304 304 303 303 303 303 304 305 305 305 305 305 305 305 306 306 306 306 307 308 308 308 309 309 311 313 314 313 312 311 311 312 312 312 312 312 313 312 312 313 314 314 314 314 313
286 286 287 287 288 288 288 288 288 288 289 290 291 292 293 294 296 298 299 300 300 301 302 303 303 302 302 302 302 302 303 304 304 305 304 304 305 305 305 305 305 306 306 307 307 308 308 309 311 312 313 313 312 312 311 312 311 312 312 312 313 312 312 312 313 313 313 313 312
286 286 286 286 287 287 288 288 288 288 288 290 289 290 292 295 296 296 296 297 299 300 301 302 302 301 301 301 301 301 302 303 303 303 304 304 304 304 304 304 305 305 305 306 307 307 308 309 310 310 311 313 312 312 311 311 311 311 311 311 311 311 311 312 312 312 312 312 312
286 286 286 286 286 287 287 287 287 287 287 288 288 289 291 294 294 294 295 296 298 299 300 301 300 300 300 300 300 300 301 302 302 303 303 303 303 303 303 303 304 304 305 305 306 306 307 308 309 309 310 311 312 312 310 310 310 310 310 310 311 311 311 311 311 312 312 311 310
286 286 287 287 287 287 287 287 287 287 288 289 288 290 293 295 294 295 297 297 298 299 300 300 298 298 299 299 300 300 300 301 301 301 302 302 302 302 302 303 303 304 304 305 305 306 306 307 308 308 309 309 311 312 311 309 310 310 310 310 310 311 311 310 311 310 310 310 310
285 286 286 287 287 287 287 287 286 287 287 288 289 293 296 296 295 296 297 298 298 299 299 298 295 296 297 299 299 299 300 300 300 301 301 301 301 301 301 302 303 303 304 304 305 305 306 307 307 307 308 309 310 311 312 310 310 310 309 309 310 310 310 310 310 310 310 310 309
286 285 285 286 286 287 288 286 287 287 287 287 290 294 296 298 297 297 298 298 298 298 298 297 295 295 296 297 297 298 299 300 300 300 300 300 300 300 301 301 302 302 303 303 304 304 305 306 306 306 307 308 309 311 312 311 311 310 309 309 309 309 309 309 309 309 309 309 308
286 286 285 286 287 288 288 286 287 288 288 287 289 293 297 298 297 298 298 299 297 297 298 298 297 297 296 297 296 297 299 299 299 299 300 299 300 300 300 301 301 302 302 303 303 304 304 305 305 306 306 308 309 310 311 312 311 310 310 309 309 308 308 308 308 308 308 308 308
286 286 286 286 286 287 287 286 287 287 288 288 289 291 294 298 297 297 298 297 296 297 298 299 298 298 297 296 297 298 298 298 298 299 299 299 299 299 300 300 301 301 302 302 303 303 304 304 304 305 306 307 309 309 310 310 310 310 310 309 309 308 308 308 308 308 308 308 308
286 286 286 286 286 286 286 286 286 286 286 287 287 288 290 296 296 296 297 296 296 297 297 298 298 298 298 297 298 298 298 297 298 298 298 298 298 299 299 300 300 301 301 302 302 303 303 303 304 304 305 306 308 309 309 309 309 309 309 309 309 308 308 308 308 308 308 307 307
285 285 285 285 285 285 286 286 286 286 286 286 286 286 287 291 292 295 297 296 296 296 296 297 297 298 298 298 298 298 298 298 298 298 298 298 298 298 299 299 300 301 301 301 302 302 302 303 303 304 305 305 307 308 308 308 308 308 309 309 309 309 308 308 307 307 307 306 306
284 284 285 285 285 285 285 286 286 287 286 286 286 286 286 286 289 292 295 293 293 295 296 295 295 297 298 299 299 298 298 298 298 298 297 297 297 298 298 299 300 301 301 301 301 302 302 302 303 304 304 305 307 307 307 307 307 307 307 309 309 309 309 308 308 307 306 306 306
284 284 284 284 284 285 285 285 286 286 286 286 285 285 285 285 287 289 289 287 287 291 294 293 294 295 297 298 298 298 298 298 298 297 297 297 297 297 298 299 300 300 301 301 301 302 302 303 303 304 304 305 306 306 306 306 306 306 307 307 308 309 309 309 308 307 306 306 306
283 284 284 283 284 284 285 284 285 285 285 285 285 285 285 285 287 288 289 288 286 287 289 290 292 294 296 297 298 298 298 297 297 297 296 296 297 297 298 298 299 300 301 301 301 301 302 302 303 304 304 305 306 306 306 306 306 306 306 307 307 308 309 309 309 308 307 306 306
283 283 283 283 284 284 284 284 284 284 284 284 285 285 285 285 286 287 288 289 287 287 287 289 291 294 296 296 297 297 297 297 297 296 296 296 297 297 297 298 299 300 301 301 301 301 301 302 302 303 304 305 305 306 306 305 305 305 306 306 306 307 307 308 309 309 308 307 307
283 283 283 283 284 284 285 286 285 285 284 284 285 285 284 284 285 285 286 287 287 287 287 288 292 295 296 296 296 296 297 297 297 296 296 296 296 297 297 298 299 300 301 301 301 301 301 302 302 303 303 304 305 305 305 305 304 305 305 306 306 306 306 307 308 308 309 308 307
283 283 283 283 284 284 285 286 285 285 284 284 284 284 284 284 284 285 285 286 287 287 286 287 290 293 296 296 295 296 296 297 297 296 296 295 296 296 297 298 299 300 301 301 301 301 301 301 302 302 303 304 304 304 304 304 304 304 304 305 306 306 306 306 307 307 308 308 308
283 283 283 283 283 283 284 284 284 284 284 284 284 284 284 284 284 284 285 286 287 286 285 285 287 291 294 295 295 295 296 297 297 296 295 295 295 296 297 298 299 300 301 301 301 302 302 302 301 302 302 303 303 303 303 303 303 304 304 304 305 305 305 306 306 306 307 308 308
283 283 283 283 283 283 283 283 283 283 283 283 283 284 284 284 284 284 285 286 286 285 285 285 286 288 290 293 294 295 295 297 297 297 296 295 295 296 297 298 298 300 300 301 301 302 302 301 301 301 301 302 303 303 303 303 303 303 303 304 304 305 305 305 305 306 306 307 307
283 282 282 282 282 284 285 284 283 282 283 283 283 283 284 284 284 284 285 285 286 286 285 284 285 286 287 289 291 293 295 296 297 297 296 295 294 295 296 297 298 299 300 301 301 301 302 301 301 301 301 301 302 302 302 302 302 302 302 303 303 304 304 304 304 305 305 306 306
283 283 282 282 282 283 283 283 282 283 283 284 284 284 284 284 283 284 284 284 285 285 284 284 285 286 286 287 289 292 295 296 296 296 296 294 294 294 296 297 298 299 300 300 301 302 302 301 301 300 301 301 301 301 302 302 302 302 302 302 303 303 303 303 304 304 304 305 305
283 284 284 282 282 282 282 282 283 283 284 284 284 284 284 284 283 283 284 284 284 284 284 284 285 285 286 287 288 291 294 296 296 296 296 294 294 294 295 297 298 299 300 301 302 302 302 302 301 300 300 300 300 301 301 301 301 301 301 301 302 302 303 303 303 303 303 304 304
283 283 283 282 282 282 282 283 283 283 283 283 283 284 284 284 284 284 284 284 284 284 284 284 285 286 288 287 288 291 294 295 295 296 296 294 294 294 295 296 297 299 300 301 301 302 302 302 302 301 300 300 300 300 300 300 300 301 301 301 301 302 302 302 302 302 302 303 303
284 283 283 282 283 283 283 282 282 282 283 283 284 284 284 283 283 283 284 284 284 283 283 284 285 288 289 286 288 290 293 295 295 296 296 294 294 294 295 296 297 299 300 301 301 301 302 302 302 301 300 299 299 299 299 299 299 300 300 300 300 301 301 301 301 302 302 302 302
284 284 283 283 283 283 282 281 282 283 283 283 283 284 283 283 283 284 284 284 284 284 284 284 286 286 286 285 286 288 292 295 295 295 296 294 294 294 294 296 297 298 300 301 301 301 301 301 301 300 300 299 298 298 298 298 298 299 299 299 299 300 300 301 301 301 301 301 302
284 284 283 283 283 283 282 282 283 283 283 283 283 283 284 284 284 284 284 284 284 284 284 284 286 285 283 284 285 288 291 294 294 295 295 294 292 292 293 295 297 298 300 300 300 300 300 300 300 300 299 298 298 297 297 297 297 297 298 298 298 299 299 300 300 301 301 301 301
284 283 283 283 284 283 283 283 283 283 282 282 283 283 284 284 284 284 284 284 284 284 285 284 284 284 283 283 284 286 290 294 293 293 293 293 292 291 292 295 296 298 300 300 300 300 300 300 299 299 298 298 297 296 296 296 296 296 296 297 297 298 299 299 299 300 300 301 301
284 283 283 283 284 284 283 282 282 282 282 282 282 283 284 284 284 284 283 283 284 285 286 284 283 283 283 282 283 285 289 293 294 293 292 290 291 291 292 295 296 298 299 300 300 299 299 299 299 298 298 297 296 295 295 295 295 295 295 296 296 297 298 298 298 299 299 300 300
283 283 283 284 284 284 283 282 282 282 282 282 282 283 284 284 283 283 283 283 284 284 284 283 284 284 283 282 283 284 287 291 293 293 292 291 290 289 290 294 296 297 299 300 300 299 299 298 298 297 297 296 295 294 294 294 294 295 295 295 296 296 297 298 298 298 298 299 299
283 283 283 284 284 284 283 282 282 282 282 282 283 283 283 283 282 282 283 284 284 283 283 284 284 284 284 283 283 284 286 290 292 293 293 292 291 291 292 294 295 297 299 300 300 299 298 298 297 297 297 296 294 292 292 292 293 293 294 294 295 296 296 297 297 297 297 298 298
283 283 283 284 284 284 283 282 282 282 283 283 283 283 283 283 283 283 284 285 284 283 282 283 283 283 283 283 283 284 286 289 290 292 294 294 292 291 292 293 294 297 299 299 299 299 298 297 297 296 296 296 292 290 288 290 290 292 293 293 294 295 295 296 296 297 297 297 297
283 283 284 284 284 284 283 283 283 283 283 284 283 283 283 282 283 283 284 286 284 283 281 281 281 282 282 282 283 284 286 287 288 291 293 294 292 290 289 290 293 296 298 299 299 299 298 297 296 296 295 295 292 289 288 288 289 290 292 291 293 293 294 295 295 296 296 297 296
284 284 284 284 284 284 283 283 283 284 284 284 284 283 283 282 282 282 283 286 284 283 282 282 281 282 282 282 283 285 287 285 286 289 291 292 290 288 287 288 291 295 297 298 299 298 298 297 296 295 295 294 293 291 289 289 290 291 291 291 291 293 293 294 294 295 295 296 296
284 284 285 284 284 284 283 284 284 284 285 284 284 283 283 283 282 282 283 285 283 282 282 282 282 282 283 283 283 284 285 285 286 287 288 291 290 288 287 287 289 293 296 298 298 298 298 298 296 295 294 293 293 291 290 289 290 291 290 291 291 292 293 293 294 294 294 295 296
284 285 285 285 285 284 284 284 285 285 285 284 283 282 282 282 282 282 283 285 283 283 283 282 283 282 282 282 283 283 283 283 285 287 288 288 289 288 287 286 288 291 295 297 298 298 298 298 297 295 294 292 292 292 291 290 290 289 289 290 289 290 292 293 293 293 293 294 295
284 284 285 286 285 285 285 285 285 285 285 284 283 282 281 281 282 283 284 285 283 282 283 283 283 283 283 283 283 283 283 283 284 285 286 286 288 289 289 287 286 289 293 297 297 298 298 298 297 296 294 293 292 292 292 291 290 290 290 289 288 289 290 292 293 293 293 293 295
284 284 285 286 286 286 285 285 285 285 284 284 283 282 282 283 283 284 284 283 281 282 282 283 283 283 284 286 283 283 283 282 282 283 285 286 288 290 291 287 286 288 291 295 296 297 297 297 297 296 295 293 292 292 292 291 290 290 290 290 290 290 289 291 292 292 292 293 294
284 284 285 286 286 286 286 286 285 284 284 284 283 283 284 285 284 283 282 281 281 281 282 282 283 283 284 286 283 283 283 283 282 283 284 286 287 289 290 287 286 286 288 292 296 297 297 297 297 296 295 293 292 292 292 292 290 290 289 289 289 290 289 289 290 290 291 292 292
Wind_Speed
1 1 1 1 1 1 1 2 2 2 1 1 1 1 1 0 1 2 2 3 3 3 3 3 3 4 5 7 8 8 7 8 8 9 10 10 10 10 10 10 10 10 10 10 10 9 9 9 7 5 3 4 5 5 6 6 7 8 8 8 7 7 7 7 7 8 9 9 8
1 1 1 1 1 1 1 2 2 1 1 1 1 1 1 0 1 1 2 3 3 3 3 3 4 5 6 7 7 7 7 7 8 9 9 10 10 10 10 10 10 10 10 10 10 9 8 9 7 5 3 4 5 6 6 6 7 7 8 9 7 7 7 7 7 8 9 9 9
1 1 1 1 1 1 1 2 2 2 2 2 1 1 1 1 1 1 2 2 3 3 3 3 4 5 7 7 7 7 7 7 8 8 9 9 10 11 11 10 11 11 11 10 10 9 9 9 7 5 4 4 6 6 7 7 7 7 7 8 7 6 6 6 7 7 7 7 9
1 1 1 1 1 1 1 1 2 2 2 2 1 1 1 1 1 1 2 2 3 3 3 4 4 5 6 7 7 7 7 7 8 8 8 9 10 11 11 11 11 11 11 10 10 10 10 10 7 5 4 5 6 7 7 7 7 7 6 6 5 6 6 6 6 6 6 7 8
1 1 1 2 2 2 2 1 1 2 2 1 1 1 1 1 1 2 2 2 3 3 4 5 4 5 5 6 8 8 8 8 8 8 8 9 10 10 11 11 11 11 10 10 11 11 11 10 6 5 5 5 5 6 7 8 7 6 6 5 5 5 6 6 6 6 6 6 7
1 1 2 2 2 2 2 1 1 1 1 1 1 1 1 1 1 2 2 2 3 4 4 5 5 5 6 6 7 7 7 7 7 7 8 9 9 10 11 11 11 11 10 10 11 11 10 9 6 5 5 5 4 5 7 8 7 7 6 6 5 5 6 7 6 6 7 8 9
1 2 2 2 2 2 1 1 1 1 1 0 1 2 1 1 2 2 2 2 3 3 4 4 5 5 6 6 6 6 6 7 7 7 8 8 9 10 11 11 11 11 11 10 11 10 10 8 6 6 6 6 5 5 7 7 7 7 7 7 6 6 6 7 6 6 7 10 11
1 2 2 2 2 1 1 0 0 0 0 1 1 1 1 1 2 2 2 2 2 3 3 3 4 5 6 6 6 6 6 7 7 7 8 8 9 10 11 11 11 11 11 10 10 10 10 7 6 6 6 6 5 6 7 8 8 9 8 8 7 6 6 6 6 7 8 10 12
1 1 2 2 1 1 0 0 0 1 1 1 1 1 1 2 2 2 2 2 2 3 3 3 3 4 5 6 6 6 6 6 7 7 7 8 9 10 10 10 11 11 10 10 10 10 10 7 6 6 6 6 6 7 7 8 9 9 9 8 7 7 7 7 8 8 8 10 11
1 1 1 1 1 0 0 0 1 1 1 1 0 1 1 2 2 2 2 2 2 3 3 3 3 4 5 5 5 5 5 5 6 6 7 7 8 9 10 9 10 11 10 10 9 9 9 7 7 8 8 7 8 8 9 9 9 9 9 7 8 9 10 9 9 9 9 9 10
1 1 1 1 1 0 0 1 1 1 1 1 0 1 2 1 1 2 2 2 2 3 3 3 3 3 4 4 4 4 4 5 5 5 6 7 8 9 9 9 10 10 10 10 9 8 7 7 8 9 9 9 9 9 10 10 9 9 9 9 10 11 11 11 10 9 9 9 10
1 1 1 1 1 0 1 1 1 1 1 0 1 1 2 1 1 1 1 2 3 3 3 3 3 3 3 3 4 4 4 4 5 5 6 7 8 8 9 9 10 10 10 10 9 8 7 7 8 9 10 10 8 8 9 11 10 9 9 10 10 11 12 12 11 10 9 9 10
1 1 1 1 0 0 1 1 1 1 0 1 1 2 2 1 1 1 1 2 3 3 2 3 3 3 3 3 3 3 4 4 5 5 6 7 7 8 8 9 9 10 10 9 9 8 8 8 9 10 10 10 8 9 10 11 11 10 9 9 10 11 12 13 12 11 10 11 10
0 1 0 0 0 1 1 1 1 0 1 1 2 2 2 2 2 1 0 2 2 2 2 3 3 3 3 3 3 4 4 4 5 6 6 7 7 7 8 8 9 9 9 8 8 9 9 9 9 10 10 10 9 10 10 11 11 10 10 10 10 10 11 12 12 12 12 12 12
0 0 0 0 1 1 1 1 0 1 1 2 2 2 2 2 2 1 1 1 1 2 3 3 3 3 3 4 4 4 4 4 5 6 6 7 7 7 7 8 9 9 9 9 9 9 9 10 10 10 10 9 9 10 10 10 11 11 10 10 10 10 10 11 11 12 12 13 13
1 0 0 1 1 1 1 0 0 1 1 2 2 2 2 1 1 1 1 1 1 2 3 3 2 3 3 4 4 4 4 5 5 6 6 6 6 7 7 8 8 9 9 10 9 9 9 9 9 9 9 9 9 9 10 10 10 11 11 11 10 10 10 10 10 11 12 13 13
1 1 1 1 1 1 1 1 1 1 2 2 2 2 2 1 1 1 0 0 1 2 2 2 2 2 3 4 4 4 4 4 5 5 5 6 6 7 7 7 7 8 8 9 9 10 9 9 9 9 9 9 9 9 9 9 10 10 11 11 11 11 10 10 10 10 11 13 13
1 1 1 1 1 1 2 2 2 2 2 3 3 2 2 1 1 0 0 0 1 2 3 2 2 3 4 4 4 4 4 4 5 5 5 6 6 6 7 7 7 7 7 8 8 9 9 10 9 9 9 9 9 9 9 9 9 9 10 10 11 11 11 11 10 9 10 12 12
2 2 2 2 2 2 2 2 2 3 3 3 2 2 1 1 1 0 0 0 1 2 2 2 3 3 4 4 4 4 4 4 5 5 5 6 6 6 6 7 7 7 7 7 7 8 9 9 9 9 9 8 9 9 9 9 8 9 9 10 10 11 11 11 11 10 9 10 11
3 3 3 3 3 3 3 3 3 3 2 2 2 2 1 1 1 1 1 1 1 1 2 2 3 4 5 4 4 4 4 4 4 5 5 6 6 6 6 7 7 6 6 6 6 7 8 9 9 9 9 9 9 9 9 9 9 9 9 9 10 10 11 11 11 11 10 10 11
3 3 3 3 3 3 3 3 3 2 2 2 2 2 1 1 1 1 1 1 1 1 1 2 3 4 5 5 4 4 3 3 4 5 5 6 6 6 6 6 6 6 6 6 6 6 7 8 9 9 9 8 9 9 9 8 8 9 9 8 9 10 11 11 11 11 11 10 11
3 3 3 3 3 3 3 2 2 2 2 2 2 1 1 1 1 1 1 1 1 1 1 2 2 3 4 4 4 3 3 3 3 4 5 5 6 6 6 6 6 6 6 6 6 5 6 7 8 8 8 8 8 8 9 9 9 9 9 9 9 9 10 11 11 11 11 11 11
3 3 3 3 2 2 2 2 2 1 1 1 1 1 1 1 1 1 1 1 1 1 1 2 2 2 3 3 3 3 3 3 3 4 5 5 5 6 6 6 6 6 6 6 5 5 5 5 6 7 8 7 7 8 8 9 8 8 8 9 9 9 9 10 10 11 11 11 11
3 3 2 2 2 2 2 1 1 1 1 1 1 0 0 0 1 1 1 1 1 1 2 1 1 1 2 2 3 3 3 4 4 4 5 5 5 6 6 5 5 5 5 5 6 7 6 4 5 5 6 6 6 7 7 8 8 8 8 9 8 8 9 9 10 10 10 11 10
3 3 2 2 2 2 2 1 1 1 1 1 0 0 0 1 1 2 2 2 2 2 2 2 1 2 2 3 3 3 4 4 3 4 5 5 5 5 5 5 5 4 5 6 10 11 10 7 6 5 5 5 6 6 6 7 8 8 8 9 9 8 8 9 9 10 10 10 10
3 3 3 2 2 2 2 1 1 1 1 1 0 0 1 1 1 2 2 2 2 2 2 2 2 2 3 3 3 4 4 3 3 4 5 5 5 5 5 5 4 4 5 8 11 12 12 11 9 7 5 5 5 5 6 6 7 8 8 9 8 8 8 9 9 10 10 10 10
3 3 3 2 2 2 2 1 1 1 1 0 0 1 1 1 1 2 3 3 2 2 2 2 2 3 3 3 4 4 4 3 3 4 4 5 5 5 5 5 4 4 6 10 12 12 11 11 11 10 8 5 5 5 5 6 7 7 8 8 8 9 9 9 9 9 10 10 10
4 4 3 3 2 2 2 1 1 1 1 0 1 1 1 1 2 3 3 3 2 2 2 2 2 2 2 3 3 3 4 4 3 3 4 4 4 4 5 5 4 5 8 12 12 12 11 11 11 11 9 7 5 5 5 5 6 6 6 7 7 8 9 8 8 8 9 9 10
5 4 4 3 3 2 2 2 2 1 1 1 1 1 1 2 2 3 3 3 3 2 2 1 1 1 2 2 3 3 4 4 3 3 4 4 4 4 5 5 5 6 10 13 12 12 11 11 11 11 10 8 5 4 4 5 5 5 6 6 7 7 8 8 8 8 8 8 9
5 5 4 4 4 3 3 2 2 2 1 1 1 1 2 2 3 3 3 3 3 2 2 1 2 2 2 2 2 3 3 4 3 3 3 4 4 4 4 5 5 6 9 13 13 12 12 12 12 11 11 10 7 5 4 4 5 5 5 5 6 7 8 8 8 9 8 8 8
6 5 5 5 4 4 3 3 2 1 1 1 2 2 2 3 2 2 2 2 2 2 1 2 2 3 2 2 2 2 3 3 3 3 3 3 3 3 4 5 5 6 9 13 13 12 12 12 12 12 12 11 8 6 5 5 5 5 5 5 6 7 7 7 8 9 9 9 8
6 6 5 5 5 4 3 2 2 2 2 2 2 2 2 2 2 1 1 1 2 2 2 2 3 3 2 2 2 2 2 3 3 3 3 2 2 2 3 5 5 7 9 13 13 12 12 12 12 12 12 12 9 7 6 5 5 5 5 6 7 7 7 7 7 8 9 9 9
6 6 6 6 5 4 3 3 2 2 2 2 2 2 2 2 1 1 1 1 2 2 2 2 3 3 2 2 2 2 2 2 3 3 3 2 2 3 3 5 5 7 10 13 13 12 12 12 11 11 11 11 8 6 6 6 5 5 5 6 7 7 8 8 8 8 9 10 9
7 6 6 6 6 5 4 3 3 3 3 3 2 2 2 1 1 1 1 1 1 2 2 2 2 2 2 2 2 2 2 2 2 3 3 3 3 3 4 4 4 7 11 12 13 13 12 12 12 11 10 10 6 5 4 5 5 5 6 6 6 7 7 8 8 8 9 9 8
8 7 7 6 6 5 4 4 3 3 3 3 2 2 1 1 1 2 1 1 1 2 1 1 1 1 1 1 1 2 2 2 2 2 3 3 3 3 4 4 4 7 11 12 12 12 13 12 12 11 10 8 5 4 4 4 4 5 6 6 7 7 8 8 8 8 8 8 8
8 8 7 7 6 5 5 5 4 4 4 3 3 2 2 1 1 1 1 2 2 2 2 1 2 2 1 1 1 1 1 2 2 1 2 2 3 3 3 3 4 7 10 12 12 12 12 12 12 11 9 6 4 3 3 4 4 5 6 6 6 7 7 7 7 7 7 7 8
8 8 8 7 7 6 6 6 5 5 4 4 3 3 2 2 1 1 1 1 2 2 2 1 2 1 1 1 1 1 1 1 1 1 1 2 3 3 3 3 4 6 9 11 12 12 12 12 12 11 9 5 4 4 3 3 4 4 5 5 5 6 6 5 6 6 7 7 8
8 8 8 8 7 7 6 6 6 6 5 4 3 3 2 2 1 1 1 1 2 2 2 1 1 1 1 1 1 0 0 1 0 1 1 2 3 3 3 3 4 5 7 10 11 12 12 12 12 11 9 5 4 4 3 3 4 4 4 4 4 5 5 4 4 5 6 7 9
8 8 8 9 8 8 7 7 7 7 6 5 3 2 2 2 1 1 1 1 2 2 2 2 1 1 1 1 1 0 0 1 1 1 1 1 2 3 4 3 3 4 6 9 11 11 11 12 12 11 9 6 5 4 3 4 4 5 5 4 4 4 4 4 4 4 5 6 10
8 8 8 9 8 8 8 8 7 6 5 5 4 3 3 2 2 1 1 1 2 2 2 2 2 1 1 1 1 1 1 1 2 2 2 1 2 4 4 3 3 4 6 8 10 11 11 11 11 11 9 6 4 4 3 3 4 5 5 4 4 4 4 4 4 4 4 5 7
8 8 8 8 8 8 8 8 7 5 4 4 4 4 3 3 2 2 2 2 2 2 2 2 2 1 1 1 2 2 2 1 2 2 2 2 2 3 4 3 3 3 4 7 9 11 11 11 11 11 9 6 5 4 3 3 4 5 5 5 4 4 4 4 3 3 4 4 4
Wind_Direction
241 237 234 232 233 240 249 258 257 252 244 244 256 261 269 358 338 337 340 344 347 342 336 332 339 345 347 348 345 344 345 347 348 349 348 346 342 340 338 337 337 337 337 336 335 334 332 328 323 328 343 344 346 346 346 346 342 342 343 346 344 340 338 338 339 339 338 336 330
258 260 264 270 273 274 278 284 290 296 293 269 264 265 275 332 351 347 344 345 347 340 333 331 344 349 349 348 346 345 347 350 351 352 350 346 343 341 340 339 339 338 338 337 337 337 334 330 324 327 343 351 353 353 352 351 346 344 345 348 346 342 340 340 345 345 344 342 339
267 283 294 298 303 303 303 304 312 316 314 300 288 287 297 325 359 4 356 346 345 341 338 338 351 354 352 348 346 346 348 352 355 355 352 347 344 343 343 341 340 339 339 339 340 338 335 331 326 328 341 357 0 359 356 352 348 346 346 349 347 344 341 339 342 344 344 343 339
274 276 275 269 268 270 275 289 305 308 307 303 299 299 308 333 0 8 3 347 349 349 348 348 356 357 354 348 346 346 349 354 359 358 354 348 345 344 343 342 342 341 341 341 341 339 336 333 329 330 338 353 3 3 359 351 348 347 348 349 349 347 345 341 341 343 344 342 339
278 259 247 245 246 246 249 254 275 287 293 302 317 330 343 352 10 11 6 358 0 356 354 355 360 358 354 349 347 347 349 356 2 2 357 350 346 345 344 344 344 343 342 342 342 341 339 336 335 335 336 341 1 5 1 353 351 350 350 350 352 351 348 344 344 344 344 343 342
274 263 253 247 249 250 252 247 250 263 281 316 12 17 11 4 22 20 10 0 1 356 354 359 2 359 354 352 349 349 350 358 2 2 359 354 349 346 345 344 344 344 343 344 343 342 341 339 340 340 338 335 349 2 3 358 357 355 354 354 355 355 352 349 346 345 345 348 348
252 259 260 257 258 262 268 273 267 278 299 14 47 35 16 0 36 29 13 358 2 359 358 3 4 1 356 354 352 351 353 359 2 2 1 357 352 348 346 344 344 344 345 345 345 344 344 342 343 343 341 336 341 355 2 3 2 0 359 357 356 356 355 352 348 347 348 351 353
243 253 257 260 261 267 277 304 332 11 40 63 61 38 11 21 50 39 22 12 13 10 5 5 4 2 0 356 354 354 356 1 2 2 2 359 355 351 348 345 345 346 346 348 347 346 345 344 348 347 344 340 339 346 355 2 5 5 4 359 357 357 357 355 352 351 351 353 357
260 263 264 265 267 273 293 348 55 80 82 75 64 17 359 44 56 45 29 29 23 19 14 7 4 5 4 357 356 357 359 3 3 3 2 1 358 354 350 347 347 347 347 348 348 347 346 347 350 348 346 345 342 344 350 358 6 9 8 2 359 358 359 358 355 354 354 356 359
268 270 274 278 285 293 3 64 72 84 87 80 31 321 332 35 50 45 36 40 27 25 22 11 11 11 8 356 355 357 1 5 4 4 5 4 1 356 352 349 348 347 347 348 348 347 347 349 350 349 347 346 346 347 350 355 5 11 12 8 3 2 2 1 358 357 357 358 0
248 261 268 273 280 323 84 84 77 74 70 60 338 311 320 10 30 37 41 47 34 31 30 21 18 16 10 357 351 355 1 6 6 8 10 8 3 358 353 350 349 348 347 347 347 347 348 349 349 349 349 348 349 351 353 355 0 7 12 12 7 6 5 3 1 360 358 358 0
237 253 262 263 266 55 84 87 82 71 54 14 290 284 289 312 332 15 45 57 46 42 39 29 22 19 13 1 355 356 1 6 10 14 15 11 4 358 354 351 350 349 348 348 347 347 347 347 349 349 350 350 351 355 357 357 358 2 7 11 10 9 8 5 3 1 359 358 2
226 249 263 275 304 62 74 79 64 44 1 297 272 268 270 284 288 297 59 71 56 55 53 36 26 21 17 10 4 4 6 10 18 20 19 13 5 359 355 352 351 351 350 349 347 347 347 347 349 350 350 351 355 358 359 359 359 359 1 6 10 11 9 7 4 1 0 2 5
217 249 266 307 44 66 74 73 46 358 311 287 274 267 268 281 287 293 36 73 62 62 60 45 27 18 15 16 15 14 15 20 28 28 23 14 6 360 356 353 352 352 351 349 348 348 348 348 349 349 350 352 357 1 1 360 0 359 359 1 7 10 10 8 5 4 3 4 6
179 241 267 51 70 75 78 84 35 292 281 277 273 272 275 281 299 326 4 35 38 54 59 51 25 13 14 21 23 21 21 27 36 33 25 14 5 1 358 355 354 353 352 350 349 349 349 349 348 349 350 352 359 3 4 1 1 1 0 0 4 6 8 9 8 7 6 6 7
160 184 120 86 91 92 102 167 233 254 263 266 271 275 281 287 313 346 12 20 20 48 56 54 27 13 15 27 29 26 26 31 38 37 29 15 5 1 359 357 355 354 353 351 350 350 350 351 350 349 350 353 360 4 5 3 2 2 2 2 3 4 5 6 9 9 9 7 9
161 166 150 128 129 146 182 219 236 248 255 262 269 273 277 284 308 341 30 91 84 77 72 62 37 28 29 33 31 30 31 34 38 36 29 17 6 2 359 358 355 354 354 353 350 350 350 352 350 350 351 354 0 5 6 5 4 3 4 5 5 5 4 4 7 9 11 10 10
175 176 170 163 166 181 200 220 233 242 250 258 264 266 266 264 263 287 32 99 117 112 106 92 65 49 43 39 32 30 33 37 38 35 27 16 7 2 359 356 353 353 354 355 352 351 351 352 352 351 352 355 1 5 6 6 5 4 5 7 7 7 6 4 5 8 11 13 12
182 182 182 186 188 193 203 215 227 237 244 251 257 261 260 251 221 187 140 156 150 138 128 112 86 67 56 45 36 31 32 39 41 36 27 15 6 0 356 352 350 351 354 356 354 353 352 353 353 353 353 357 2 4 5 6 6 6 7 8 9 9 8 7 6 7 10 14 14
188 189 191 195 194 197 202 211 220 229 239 248 254 258 254 242 202 173 166 181 180 159 137 118 92 79 69 56 43 32 27 35 42 39 30 15 5 358 352 349 348 349 353 357 358 357 356 355 355 355 355 358 2 4 4 5 6 6 8 9 11 11 11 10 8 8 9 14 17
196 197 197 196 195 197 203 210 216 226 236 247 251 251 246 231 200 185 182 183 177 157 135 118 96 86 78 67 50 34 23 27 44 44 35 18 4 354 348 346 345 348 352 357 1 4 4 1 358 356 356 359 3 4 4 5 5 6 7 9 11 12 12 12 11 11 12 16 20
204 201 198 195 195 197 201 208 216 225 235 243 247 244 235 219 201 193 186 170 160 140 124 113 100 91 84 77 59 39 23 23 45 50 43 24 3 350 343 342 344 348 354 359 2 8 13 12 2 358 357 360 3 4 6 6 6 6 6 8 10 12 14 14 14 14 15 18 22
202 199 195 191 189 187 190 196 207 220 233 245 252 249 231 207 189 164 141 130 136 125 115 110 108 102 93 85 68 48 31 27 45 54 51 32 5 349 341 340 345 352 358 2 5 12 19 23 9 0 356 358 2 5 6 7 6 5 6 7 10 13 16 17 16 16 17 19 23
193 189 186 178 173 171 173 178 187 204 228 256 267 261 222 160 126 116 115 119 117 113 107 107 113 111 101 86 68 52 40 31 42 54 54 38 9 351 341 341 347 354 1 7 13 19 25 32 20 6 358 357 2 5 6 6 6 6 6 7 9 13 16 18 18 18 18 18 21
184 180 176 168 162 158 157 158 163 176 208 253 269 290 60 83 100 109 112 112 104 101 102 105 109 105 94 78 63 52 43 36 39 52 56 44 16 357 346 345 351 357 7 16 21 25 30 36 34 21 5 359 2 4 6 5 6 7 8 8 9 12 15 18 19 20 19 18 18
175 174 175 170 156 150 150 158 165 180 205 248 293 17 48 69 95 103 105 103 97 95 98 102 104 101 94 80 67 56 47 38 40 53 58 50 22 5 354 353 356 4 18 25 26 28 30 35 38 35 23 5 5 6 7 6 6 6 6 7 8 10 14 17 19 20 20 19 16
173 177 178 166 151 151 157 164 168 181 197 227 58 59 63 75 90 95 98 99 97 94 90 91 97 99 96 86 75 63 52 40 39 52 61 57 29 10 360 358 0 12 26 31 31 31 32 35 38 38 33 19 11 10 10 8 5 4 4 6 8 10 12 15 17 18 19 18 16
179 179 173 159 159 159 159 152 159 169 173 149 117 109 103 96 93 94 97 100 98 93 87 85 96 97 92 85 78 68 55 41 36 49 60 59 33 13 2 1 4 20 32 36 35 35 35 37 40 41 40 32 21 14 11 8 5 5 5 7 8 9 10 12 13 15 18 19 18
179 174 167 165 169 167 160 160 173 177 175 165 152 127 105 96 94 95 97 98 96 97 100 105 103 88 81 83 80 70 57 44 36 47 58 57 33 11 2 2 7 24 35 39 39 39 39 40 43 44 44 40 31 20 13 11 8 7 7 8 8 8 10 11 11 12 16 19 20
174 169 168 171 171 170 172 182 185 181 170 154 129 107 96 91 89 90 93 97 100 109 122 129 103 89 87 91 86 75 63 50 41 48 59 60 36 14 3 5 8 24 35 40 42 42 42 43 45 47 47 44 36 28 19 15 13 11 9 7 7 9 11 13 11 12 14 17 20
171 169 169 170 172 177 182 188 181 164 141 121 108 100 96 91 90 94 100 107 114 120 116 101 94 94 94 94 88 82 74 61 49 49 56 64 42 20 6 5 8 24 36 41 44 45 45 46 48 49 49 45 38 30 24 20 18 15 11 8 9 10 13 16 14 12 13 15 18
170 168 168 170 175 180 183 177 163 141 124 114 107 104 104 104 107 110 116 120 120 116 108 97 100 100 99 88 86 85 80 67 53 48 49 63 48 24 9 7 9 24 36 42 45 47 47 47 48 50 50 47 41 33 26 23 20 17 14 11 11 12 15 18 16 15 14 16 17
168 168 169 172 177 179 176 166 153 136 121 111 110 111 116 121 115 106 103 110 119 121 121 120 120 121 121 118 111 105 95 83 65 55 52 62 61 42 23 13 12 24 34 41 45 47 48 47 47 48 49 48 44 34 25 21 20 18 16 13 12 13 15 19 18 17 16 17 17
168 169 171 174 175 173 168 161 149 135 123 114 115 119 126 126 115 108 109 119 122 122 124 126 130 135 139 142 137 132 124 111 87 70 61 60 63 51 34 17 13 24 31 39 43 46 47 47 46 45 45 46 45 37 25 19 18 18 17 14 12 13 15 18 19 18 17 17 16
169 169 172 174 172 168 163 158 150 139 131 126 129 134 141 138 134 133 134 132 117 103 91 87 95 101 104 114 135 141 139 132 112 90 74 65 64 55 37 17 12 22 30 37 41 44 47 47 45 43 41 39 40 39 32 23 22 22 19 14 13 13 15 16 17 15 13 13 14
170 170 171 172 169 166 162 158 152 147 143 143 147 153 161 168 164 162 149 128 105 94 86 78 75 77 81 83 99 136 149 150 141 121 91 75 73 62 42 16 8 19 28 36 38 42 45 47 45 42 38 32 31 33 35 29 27 26 23 17 15 13 13 14 14 11 9 8 12
172 170 168 168 168 166 163 159 155 155 157 159 160 164 169 170 180 183 160 124 102 97 95 91 90 97 111 129 138 163 196 191 160 138 94 78 81 73 54 23 6 13 24 34 37 40 43 46 46 43 38 27 23 25 29 31 27 23 21 20 16 12 10 13 12 9 6 4 11
172 169 166 166 168 167 165 161 161 164 167 169 169 169 168 163 168 180 171 142 118 114 113 105 111 127 145 152 152 184 294 327 28 68 78 75 84 81 69 37 9 6 16 31 37 39 41 45 46 45 41 28 19 18 23 28 23 19 16 14 6 3 3 8 12 10 6 4 11
173 169 166 166 167 168 167 166 169 170 170 169 166 165 163 160 167 172 168 148 132 129 131 132 140 150 153 139 124 98 1 354 16 28 40 50 83 89 82 57 20 7 13 28 36 39 41 43 46 46 44 34 22 17 21 28 25 21 17 12 5 360 358 2 9 10 8 7 11
171 168 166 166 167 168 169 171 173 173 169 164 162 162 165 164 159 150 137 118 116 121 127 133 137 135 129 120 113 104 63 21 25 26 26 23 74 88 89 73 40 16 15 26 35 38 40 41 44 47 46 40 25 17 20 29 27 22 17 14 10 4 360 357 2 5 7 7 9
167 166 166 167 168 169 170 172 173 171 166 162 162 162 159 149 135 123 112 102 99 104 109 116 117 111 101 97 100 100 88 54 33 25 23 21 60 80 86 82 56 29 19 25 35 38 39 39 41 44 46 46 31 19 16 27 28 23 17 11 7 3 358 352 353 356 0 1 4